Find Kosmos-712

NORAD ID: 7679 Int'l Des: 1975-016 Owner: GUKOSR Country: SU operational
LEOCIRCULAR

現在のビュー

3D地球を読み込み中...

Kosmos-712について

説明を読み込み中...

次回通過

Passes for default location (London). Set your location on the main map for personalized predictions.

高度履歴

Loading altitude history...

軌道要素

1 07679U 75016B 26159.26639719 .00000010 00000-0 16652-3 0 9998
2 07679 74.0014 134.2535 0050853 287.3034 176.4008 12.53465526346130
Epoch: Jun 8, 2026 • Age: 18 hours

現在のステータス

高度 1432.2 km
速度 7.16 km/s
衛星直下点 -52.54°S, 156.52°W
タイプ other

Most Searched